Preview of NWS' New Version of Forecast
This preview is not operational and should not be used for support decisions.

Regional Weather Roundup (RWR)

Issued by National Weather Service (NWS)

                            
000
ASUS42 KTBW 222318
RWRFL 
FLORIDA REGIONAL WEATHER ROUNDUP
NATIONAL WEATHER SERVICE TAMPA BAY RUSKIN FL
700 PM EDT THU AUG 22 2019

NOTE: "FAIR" INDICATES FEW OR NO CLOUDS BELOW 12,000 FEET WITH NO
SIGNIFICANT WEATHER AND/OR OBSTRUCTIONS TO VISIBILITY.

FLZ001>010-012>015-112-114-115-230000-
PANHANDLE FLORIDA
  
CITY           SKY/WX    TMP DP  RH WIND       PRES   REMARKS
PENSACOLA      FAIR      86  78  77 SE6       29.97S HX  98           
PENSACOLA NAS  PTSUNNY   85  78  80 SE9       29.97R HX  96           
MILTON NAS     PTSUNNY   84  77  79 SE6       29.98F                  
CRESTVIEW      FAIR      83  75  77 S5        30.00R                  
DUKE FIELD     FAIR      83  75  76 SW3       29.98R                  
VALPARAISO     FAIR      83  76  77 S8        29.97S                  
MARY ESTHER    PTSUNNY   84  76  77 S7        29.96F                  
TRI COUNTY     FAIR      86  73  65 S6        29.97F                  
PANAMA CITY    FAIR      84  77  79 S9        29.96F                  
TYNDALL AFB    FAIR      84  77  80 S9        29.97F                  
APALACHICOLA   FAIR      86  75  69 S8        29.98F HX  95           

STATION/POSITION SKY/WX   TEMP    WIND        PRES    WAVE   SWELL
                          AIR SEA DIR/SP/G            HT/PER HT/PER
                          (F)     (DEG/KT/KT) (MB)    (FT/S) (FT/S)
30.1N   87.6W              84 87  130/  6/  8 1014.9F   1/ 5   2/ 5
29.2N   88.2W              85 87  160/  8/ 12 1015.2S   2/ 5   2/ 5
28.8N   86.0W                 86  150/  8/ 10 1015.3R   2/ 4   2/ 4
PANAMA CITY BEAC           83 87  160/ 10/ 12 1015.7
TOWER C                    83     170/  6/  7 1015.7F
28.5N   84.5W              85     110/  6/  8 1016.1S   2/ 6   2/ 6

$$
FLZ011-016>038-118-127-128-134-139-239-230000-
NORTH FLORIDA
  
CITY           SKY/WX    TMP DP  RH WIND       PRES   REMARKS
MARIANNA       FAIR      88  76  67 W7        29.95F HX  99           
TALLAHASSEE    CLOUDY    82  76  81 NE3       29.98S                  
PERRY          FAIR      82  76  83 CALM      29.99S                  
LIVE OAK       SUNNY     91  72  52 CALM      29.98S HX  98           
CROSS CITY     FAIR      88  78  71 SW5       29.98S HX 102           
LAKE CITY      FAIR      90  70  51 SE5       29.99S HX  95           
GAINESVILLE    PTSUNNY   89  74  60 E10       30.02R HX  98           
WILLISTON      FAIR      90  74  58 E3        29.99R HX  98           
MAYPORT NAS    FAIR      85  75  72 SE10      30.02S                  
JACKSONVILLE   FAIR      86  71  60 E14       30.00S                  
JAX NAS        PTSUNNY   88  72  58 E14       30.02R                  
JAX CECIL      SUNNY     90  72  55 SE15      30.01R HX  96           
FERNANDINA BEA FAIR      84  76  76 MISG      30.02F                  
ST AUGUSTINE   FAIR      84  77  79 E12       30.03S                  
PALM COAST     SUNNY     84  75  74 E9        30.03R                  

STATION/POSITION SKY/WX   TEMP    WIND        PRES    WAVE   SWELL
                          AIR SEA DIR/SP/G            HT/PER HT/PER
                          (F)     (DEG/KT/KT) (MB)    (FT/S) (FT/S)
SHELL POINT      NOT AVBL
KEATON BEACH               85     210/  7/  8 1015.5F
CEDAR KEY                  87     280/  6/  8 1015.3F
FERNANDINA                 90 85              1017.4F
30.7N   81.3W                 85                N/A     2/11
MAYPORT                           100/  6/ 11   N/A
31.4N   80.9W              83 84  160/ 12/ 14 1016.3F   2/11   2/11
ST AUGUSTINE               83 86  100/  9/ 10 1016.8F

$$
FLZ040-043>046-052-053-057-058-063-144-230000-
INTERIOR CENTRAL FLORIDA
  
CITY           SKY/WX    TMP DP  RH WIND       PRES   REMARKS
OCALA          FAIR      87  74  64 E10       30.00R HX  95           
LEESBURG       FAIR      89  73  59 E10       30.01R HX  97           
SANFORD        FAIR      87  72  60 E12       30.02R                  
ORLANDO EXEC   FAIR      86  72  62 E10       30.01R                  
ORLANDO INTL   PTSUNNY   85  72  65 E10       30.01R                  
KISSIMMEE      FAIR      86  73  65 E13       30.01S                  
WINTER HAVEN   FAIR      89  71  55 E13       30.01S HX  95           
LAKELAND       MOSUNNY   90  72  55 E9        30.00  HX  96           
SEBRING        FAIR      82  77  84 CALM      30.01S                  
OKEECHOBEE     FAIR      82  73  74 NE6       30.00S                  

$$
FLZ041-047-054-059-064-141-147-230000-
EAST CENTRAL FLORIDA
  
CITY           SKY/WX    TMP DP  RH WIND       PRES   REMARKS
ORMOND BEACH   MOSUNNY   84  77  79 E6        30.03R                  
DAYTONA BEACH  FAIR      85  75  72 E9        30.02S                  
DELAND         FAIR      86  73  66 E13       30.02S                  
NEW SMYRNA BEA MOSUNNY   84  75  74 E9        30.03S                  
JFK SPACE CTR  FAIR      84  57  38 E7        30.01S                  
TITUSVILLE     MOSUNNY   88  73  62 E9        30.03R HX  96           
CAPE CANAVERAL FAIR      85  77  77 CALM      30.01S HX  95           
PATRICK AFB    FAIR      85  77  77 E12       30.01F HX  96           
MELBOURNE      FAIR      86  75  69 E12       30.01S HX  95           
VERO BEACH     FAIR      83  75  77 E9        30.01S                  
FT PIERCE      FAIR      84  72  67 E10       30.00S                  
STUART         MOSUNNY   84  73  70 E9        30.01S                  

STATION/POSITION SKY/WX   TEMP    WIND        PRES    WAVE   SWELL
                          AIR SEA DIR/SP/G            HT/PER HT/PER
                          (F)     (DEG/KT/KT) (MB)    (FT/S) (FT/S)
28.5N   80.2W              84 84  100/ 10/ 12 1016.6R   2/10   2/10
28.9N   78.5W              85      90/ 14/ 17 1017.2F   3/ 6   2/ 6
TRIDENT PIER               85 83   80/  7/ 10 1018.1S
28.4N   80.5W                 83                N/A     2/ 4
27.5N   80.2W                 84                N/A     3/ 5

$$
FLZ050-056-061-142-242-148-248-149-249-151-251-155-255-
160-260-230000-
WEST CENTRAL FLORIDA
  
CITY           SKY/WX    TMP DP  RH WIND       PRES   REMARKS
CRYSTAL RIVER  FAIR      91  72  52 E5        29.98S HX  98           
INVERNESS      FAIR      88  77  70 CALM      30.00R HX 100           
BROOKSVILLE    FAIR      91  72  53 E8        29.99R HX  98           
CLEARWATER AIR FAIR      86  73  66 NW8       29.97S                  
ST PETE CLEARW FAIR      91  75  59 NW7       29.97S HX 101           
TAMPA INTL     PTSUNNY   91  70  49 SE7       29.97S HX  96           
PLANT CITY     FAIR      90  75  62 E12       30.01R HX 100           
MACDILL AFB    FAIR      88  74  62 SE8       29.97S HX  96           
PETER O KNIGHT CLOUDY    90  72  55 E9        29.98R HX  96           
ST PETERSBURG  FAIR      90  75  61 SE12      29.96R HX 100           
SARASOTA       PTSUNNY   88  74  63 E8        29.96R HX  96           
VENICE         PTSUNNY   88  75  66 E13G18    29.98R HX  97           

STATION/POSITION SKY/WX   TEMP    WIND        PRES    WAVE   SWELL
                          AIR SEA DIR/SP/G            HT/PER HT/PER
                          (F)     (DEG/KT/KT) (MB)    (FT/S) (FT/S)
27.3N   84.2W                 87                N/A     2/ 7
CLEARWATER BEACH           87 90  320/  7/  8 1015.2
MIDDLE TAMPA BAY                  150/  6/  8   N/A
VENICE                     86 86   90/ 10/ 12 1015.2R

$$
FLZ066-069-070-075>078-162-262-165-265-230000-
SOUTHWEST FLORIDA AND KEYS
  
CITY           SKY/WX    TMP DP  RH WIND       PRES   REMARKS
PUNTA GORDA    FAIR      83  76  79 E8        30.00S                  
FT MYERS       FAIR      80  75  84 E7        29.97F                  
SOUTHWEST INTL FAIR      81  76  84 E5        29.98S                  
NAPLES         FAIR      84  76  76 E7        29.97S                  
MARCO ISLAND   FAIR     N/A N/A N/A E8          N/A                   
IMMOKALEE        N/A     84  75  74 E7        29.96R                  
MARATHON       FAIR      86  75  69 N8        29.96R HX  95           
KEY WEST NAS   FAIR      88  75  65 N8        29.96S HX  97           
KEY WEST INTL  FAIR      87  76  69 N9        29.96S HX  97           

STATION/POSITION SKY/WX   TEMP    WIND        PRES    WAVE   SWELL
                          AIR SEA DIR/SP/G            HT/PER HT/PER
                          (F)     (DEG/KT/KT) (MB)    (FT/S) (FT/S)
NAPLES                     82 88              1015.0
26.0N   85.6W              84 86  240/  2/  4 1016.2R   1/ 7   2/ 7
DRY TORTUGAS               86      40/  9/ 11 1015.2R
SAND KEY                   86      20/ 10/ 13 1013.5S
SOMBRERO KEY               83      20/  6/  8 1014.9R
LONG KEY                   83                 1014.0R

$$
FLZ067-068-071>074-168-172>174-230000-
SOUTHEAST FLORIDA 
  
CITY           SKY/WX    TMP DP  RH WIND       PRES   REMARKS
W PALM BEACH   PTSUNNY   85  74  69 NE12      29.99S                  
BOCA RATON     MOSUNNY   84  77  79 E12       29.98F                  
FT LAUDER-EXEC FAIR      82  75  79 NE8       29.97F                  
FT LAUDERDALE  PTSUNNY   83  75  77 E12       29.96F                  
POMPANO BEACH  PTSUNNY   84  75  74 E10       29.97F                  
PEMBROKE PINES FAIR      85  74  69 NE13      29.98S                  
OPA LOCKA      FAIR      84  75  74 NE9       29.98S                  
MIAMI          PTSUNNY   85  72  65 NE8       29.97S                  
WEST KENDALL   PTSUNNY   84  74  71 NE9       29.97S                  
HOMESTEAD      FAIR      83  76  79 NE10      29.96S                  

STATION/POSITION SKY/WX   TEMP    WIND        PRES    WAVE   SWELL
                          AIR SEA DIR/SP/G            HT/PER HT/PER
                          (F)     (DEG/KT/KT) (MB)    (FT/S) (FT/S)
VIRGINIA KEY               84 89   30/  5/ 12 1014.4
LAKE WORTH                 82 86   70/ 13/ 17 1016.5F
FOWEY ROCKS                83 86   40/ 17/ 19 1014.7F
SETTLEMENT POINT           83      80/ 16/ 18 1015.5S

$$